Location: Mexico
(19.4000°N, 99.1500°W)
Time: 17:48:35
(UTC-06:00)

ISS - Pass Details

Date: 17 July 2019
Orbit: 409 x 418 km, 51.6° (Epoch: 23 July)

Event Time Altitude Azimuth Distance (km) Brightness Sun altitude
Rises 20:18:12 0° 237° (WSW) 2,344 0.4 -13.7°
Reaches altitude 10° 20:20:27 10° 249° (WSW) 1,482 -0.4 -14.1°
Maximum altitude 20:23:24 29° 311° (NW) 783 -1.6 -14.7°
Drops below altitude 10° 20:26:22 10° 14° (NNE) 1,481 -0.8 -15.3°
Sets 20:28:37 0° 26° (NNE) 2,342 0.1 -15.8°
